GEFSMA_500_meanwind_024.txt.gz
Wind_Speed
15 15 15 16 16 16 16 17 18 18 19 21 22 24 25 27 29 32 32 33 33 34 36 38 41 43 44 45 47 48 49 50 51 51 50 50 49 49 49 49 49 49 48
16 16 16 18 18 19 19 20 20 22 23 25 26 28 29 30 32 34 36 37 38 39 41 43 45 47 49 51 52 53 55 56 56 56 55 54 53 52 51 51 51 51 51
18 18 18 19 21 22 23 25 26 28 30 31 33 35 36 37 39 40 41 43 45 46 47 48 50 51 53 55 57 59 60 61 61 61 60 58 57 55 54 53 53 52 52
21 22 22 23 25 26 27 30 31 33 35 37 38 40 41 44 45 47 48 49 51 53 54 55 56 56 57 59 61 63 64 65 65 65 64 62 60 58 56 55 55 55 54
26 26 26 28 30 31 32 34 36 38 40 42 43 45 47 49 51 53 54 56 57 58 59 60 61 62 62 63 63 64 66 67 68 68 67 65 63 61 59 58 57 57 56
31 30 30 32 34 35 37 39 41 43 45 47 49 51 52 54 56 58 59 61 62 63 64 65 64 65 65 65 65 65 64 65 66 66 67 67 65 63 61 60 58 58 57
34 34 33 35 37 40 41 42 45 47 49 51 53 55 56 58 60 61 63 64 65 66 66 67 66 66 66 65 64 62 61 59 58 58 59 61 62 62 61 60 58 58 57
37 36 37 37 39 42 43 45 48 50 53 55 57 58 58 59 61 63 65 66 66 67 67 67 67 66 64 62 60 58 55 53 51 50 50 52 53 55 55 55 54 54 53
39 37 37 39 42 46 47 49 50 52 54 56 57 58 59 59 60 62 65 66 67 67 68 68 67 65 62 59 56 54 52 50 48 46 45 45 45 46 46 47 48 49 49
39 38 39 42 45 48 49 51 52 53 55 56 57 59 59 60 60 61 63 65 66 67 67 67 65 62 60 58 56 54 52 50 49 46 45 44 44 44 45 45 46 46 47
43 43 43 45 47 49 50 51 53 55 55 57 59 60 61 62 63 63 64 66 67 68 68 66 63 59 58 57 56 55 54 52 51 49 48 48 47 47 47 47 47 48 48
45 45 45 47 48 50 51 52 54 56 57 59 61 62 62 63 64 65 67 68 69 69 67 65 61 59 57 56 56 55 55 54 54 53 53 53 52 51 50 50 50 51 51
48 47 48 49 52 52 53 55 57 59 60 61 61 61 62 63 66 68 70 70 69 67 65 62 60 60 59 58 58 57 57 57 57 57 57 57 57 56 56 55 55 54 54
49 49 51 53 54 55 56 58 59 60 60 60 60 61 63 66 69 70 70 69 66 64 62 61 60 61 61 61 61 61 61 61 61 61 61 61 61 61 60 60 60 59 58
51 52 55 57 57 57 58 59 60 60 60 60 62 64 67 69 70 70 69 68 67 65 63 63 62 61 62 63 63 63 63 63 63 63 63 63 63 63 63 63 63 63 61
54 56 58 58 58 58 58 60 60 60 61 63 65 67 69 70 70 69 68 68 68 68 67 65 64 62 61 61 61 61 61 61 61 61 61 61 61 61 62 63 64 64 63
56 58 59 59 59 59 60 61 62 62 63 65 66 68 69 70 69 69 69 69 68 68 68 64 62 59 55 53 51 51 52 51 51 52 52 53 53 54 56 59 61 62 62
57 58 59 59 60 62 62 62 62 63 64 66 68 69 69 69 69 68 68 67 65 63 61 56 51 47 43 41 41 40 39 39 40 42 43 44 44 45 47 51 53 56 57
59 60 60 62 64 65 63 61 61 62 64 67 68 68 68 68 67 66 64 60 56 52 49 45 39 36 35 35 33 32 32 32 33 34 35 36 37 39 41 43 45 47 50
61 63 64 65 65 62 59 59 60 63 65 66 66 67 66 65 63 59 54 49 46 42 40 36 31 30 30 29 29 28 28 28 28 29 30 31 32 33 35 36 38 40 43
64 66 64 61 60 57 56 58 61 62 64 64 64 64 62 58 53 49 45 42 39 36 33 29 27 26 27 27 26 26 24 24 24 26 26 27 27 28 30 31 32 34 36
64 61 57 54 53 54 56 59 60 61 61 61 60 57 53 49 46 43 40 37 33 30 27 24 23 23 24 23 22 20 19 19 19 20 20 20 20 21 22 23 25 27 29
57 53 50 50 52 54 56 57 58 58 58 56 52 48 44 42 40 37 33 30 27 25 22 20 19 20 18 17 15 14 13 12 12 14 13 13 13 14 15 16 17 20 23
49 47 47 50 52 53 53 54 54 53 50 46 43 41 39 37 34 30 26 23 20 17 15 14 14 13 12 11 10 9 8 8 7 7 7 7 7 8 9 11 13 16 19
45 46 47 49 50 50 50 49 47 44 41 38 37 36 34 30 27 22 18 14 10 9 9 9 8 8 7 7 6 6 6 6 5 5 5 5 6 7 8 9 12 15 18
45 46 46 47 47 46 44 41 38 35 33 32 32 31 28 24 19 14 10 7 5 4 5 4 4 5 5 6 6 7 7 7 7 7 7 7 7 8 9 11 12 14 17

GEFSMA_500_meanwind_030.txt.gz
Wind_Speed
16 16 16 16 16 16 17 17 17 18 19 20 21 22 24 26 27 29 30 31 32 33 34 35 35 36 37 38 39 40 41 42 42 43 44 44 45 45 45 45 46 46 46
18 18 20 20 20 20 21 22 22 23 24 25 26 27 29 31 33 35 36 38 39 40 41 42 43 43 44 45 46 46 47 48 49 49 49 49 50 50 50 50 50 49 50
21 22 23 24 25 25 26 27 27 28 29 30 31 32 34 36 38 40 41 43 44 45 47 48 49 50 50 51 52 53 53 54 55 55 55 55 55 55 54 54 53 53 53
25 26 27 28 29 29 30 32 33 33 34 34 35 37 38 39 42 44 45 47 48 50 51 53 54 55 56 56 57 57 58 58 58 59 59 59 59 58 58 58 57 56 56
30 31 32 31 32 32 33 35 37 38 38 38 39 40 42 43 45 47 48 50 52 53 55 56 57 58 58 59 59 60 60 59 60 60 60 60 60 60 60 60 59 58 57
34 35 36 36 35 34 34 35 37 39 40 41 42 43 45 47 49 50 51 52 54 55 57 58 59 59 59 59 60 61 61 61 61 60 60 61 61 62 61 60 59 59 58
36 38 38 39 37 35 35 35 36 38 41 42 43 44 46 48 50 51 53 54 56 57 58 59 60 60 61 61 61 61 61 60 60 61 61 62 61 61 61 61 60 59 59
39 40 40 39 37 36 35 35 36 37 40 42 43 44 46 48 51 53 55 57 59 60 61 61 62 62 62 61 61 61 61 61 62 62 63 63 62 61 60 60 59 59 58
40 41 40 39 39 39 38 38 38 39 41 43 45 47 48 50 52 55 58 60 61 62 62 62 62 62 62 62 62 62 63 64 65 65 64 63 61 60 59 59 59 58 58
41 40 40 41 41 41 42 41 41 42 44 46 49 51 53 54 55 56 58 60 61 61 61 61 61 62 63 64 65 66 67 67 67 66 65 62 61 59 59 59 59 58 57
42 43 43 44 45 45 45 45 45 46 47 50 52 55 57 59 60 60 59 59 60 60 61 62 64 65 67 68 68 69 69 68 68 66 64 61 60 59 58 57 57 57 55
45 45 46 47 47 48 48 48 48 50 51 54 56 59 61 62 63 63 62 61 61 62 64 66 68 70 70 70 71 71 70 69 67 65 62 60 59 58 57 57 56 56 55
46 47 48 49 49 50 50 50 51 53 55 57 60 62 63 64 64 64 63 63 64 65 67 69 71 72 72 73 73 73 72 70 68 66 64 62 60 59 58 57 56 56 55
48 49 50 50 51 52 52 53 54 57 58 61 63 64 65 66 66 67 68 68 68 67 68 69 71 73 74 74 74 73 73 71 69 68 67 65 62 60 59 59 58 57 56
52 52 51 52 52 53 54 56 58 60 62 64 65 66 66 67 68 70 70 69 69 68 67 69 72 72 73 73 72 71 70 69 68 67 66 65 63 61 61 61 60 59 58
54 55 55 56 56 57 58 61 62 63 64 65 67 67 68 68 69 69 68 69 69 70 70 70 72 73 72 69 66 64 62 61 60 60 60 60 60 59 59 60 61 61 60
58 59 59 60 61 62 62 63 63 63 63 64 66 66 67 66 66 67 67 69 70 72 72 70 70 68 65 61 56 54 52 50 48 48 48 49 50 52 54 56 59 60 61
62 63 63 64 64 64 64 63 62 62 63 63 63 63 63 64 64 65 66 68 69 70 69 66 61 57 54 50 47 45 43 40 39 38 39 40 42 44 47 50 53 56 59
65 65 65 64 63 63 62 62 62 62 61 61 61 61 60 61 62 63 65 66 65 64 62 57 51 47 43 41 38 35 33 32 31 31 32 33 35 37 39 42 45 48 53
64 63 62 61 61 61 61 60 60 60 61 61 59 58 58 59 61 62 61 60 58 54 50 47 41 37 34 33 30 28 28 28 27 28 28 28 29 30 32 34 37 41 45
60 59 59 59 59 59 59 59 60 59 56 55 55 55 56 58 58 57 54 51 47 43 39 36 32 28 26 25 24 24 23 24 24 25 24 25 25 25 27 29 32 35 38
57 57 58 57 57 58 58 57 55 53 52 52 53 54 54 53 51 48 44 41 37 34 29 25 22 20 19 19 19 19 19 18 18 21 20 20 20 20 22 24 27 30 33
54 55 55 56 56 55 54 52 50 50 51 51 51 50 48 45 41 38 34 31 29 25 21 17 16 15 15 16 16 16 16 16 16 17 17 16 16 15 17 20 22 25 27
52 53 53 53 52 50 48 48 48 49 49 48 46 43 40 35 32 28 25 23 21 18 16 14 14 14 14 14 14 14 13 13 14 14 13 13 13 12 13 14 17 19 22
50 50 49 47 46 45 45 46 46 45 44 41 38 35 31 27 24 21 19 17 14 13 12 12 13 13 14 14 14 14 14 14 13 13 12 11 10 10 10 11 13 15 17
44 43 42 43 43 43 43 42 40 38 35 32 30 28 25 21 17 15 13 11 10 11 12 12 13 14 14 15 16 16 15 14 13 12 11 11 10 10 10 9 10 11 13

GEFSMA_500_meanwind_036.txt.gz
Wind_Speed
14 13 12 13 13 14 15 16 18 20 21 22 23 23 24 25 26 26 27 29 30 31 32 33 35 36 37 38 39 40 41 41 41 42 42 42 42 42 42 42 42 41 40
18 18 17 16 17 17 18 19 20 22 24 25 27 28 29 30 31 32 33 34 35 36 37 38 38 39 40 41 42 43 44 46 46 46 47 47 47 47 47 47 47 46 46
23 22 22 21 21 22 22 22 22 24 26 27 29 31 33 34 36 37 38 38 39 40 40 41 41 42 43 44 45 46 47 48 48 49 49 50 50 50 50 50 50 50 49
29 27 27 26 25 25 25 25 25 26 27 29 31 33 35 36 38 40 41 41 42 42 43 44 44 45 46 47 47 48 49 50 50 51 51 51 51 51 50 50 50 50 50
34 32 31 30 29 29 28 28 28 28 29 31 33 35 36 37 39 40 41 43 44 45 46 46 47 48 48 49 50 51 52 52 53 53 53 53 53 53 53 52 52 51 51
35 34 33 32 30 30 30 29 29 29 31 33 35 36 38 39 40 41 42 44 46 47 48 49 50 51 52 52 53 54 55 56 56 57 57 56 56 55 55 55 53 52 52
32 32 32 31 29 28 28 28 28 30 32 34 36 37 39 40 42 43 44 46 48 49 51 52 53 53 54 55 56 58 58 59 59 59 58 57 57 57 56 56 55 55 54
29 29 30 30 28 28 29 30 31 32 34 35 38 40 41 42 43 45 47 49 51 52 54 55 56 57 59 60 61 62 62 61 61 60 59 58 58 58 58 58 58 58 57
27 28 28 30 30 30 31 32 34 36 37 38 40 42 43 43 45 47 49 52 54 56 58 59 60 62 63 64 65 65 64 64 63 62 61 61 62 62 62 62 61 61 61
26 26 28 29 31 32 34 36 38 39 41 42 43 45 46 47 49 50 52 54 57 59 61 63 64 66 67 68 68 68 68 67 67 67 67 67 67 67 67 67 66 65 64
27 28 29 32 34 37 39 41 42 44 46 47 48 49 51 52 54 55 55 57 60 62 65 66 68 69 70 70 70 70 70 70 71 71 71 71 72 71 71 71 70 69 67
29 31 33 35 38 41 43 45 47 49 50 52 53 54 56 57 58 59 60 61 62 64 66 68 69 70 71 71 71 72 72 73 73 74 74 74 75 74 74 74 73 71 70
33 35 37 40 43 45 47 50 52 53 54 56 57 59 61 62 63 64 65 65 64 63 64 67 69 71 72 72 72 73 73 74 75 76 76 77 77 77 76 76 75 73 71
39 40 43 45 48 50 52 54 56 57 59 60 62 63 65 65 66 66 65 65 63 63 64 66 68 70 72 72 72 74 75 76 76 77 77 77 77 77 76 76 75 74 72
44 46 48 51 53 55 57 58 60 61 63 64 65 66 66 65 65 64 64 65 65 63 62 64 66 69 71 72 73 74 74 74 74 74 73 72 72 71 71 70 70 70 70
48 50 52 55 56 58 59 61 63 64 66 66 66 66 64 63 63 63 63 64 64 63 61 62 66 68 70 71 71 69 68 66 65 64 63 62 61 61 60 61 62 63 64
53 54 56 58 59 60 61 63 64 65 65 65 64 63 62 62 61 61 61 62 63 64 63 62 64 66 66 65 63 61 58 56 54 52 50 49 48 48 49 49 50 52 54
56 57 58 59 60 61 62 63 64 64 63 62 61 61 60 60 60 60 61 61 62 63 62 62 60 59 58 55 53 50 47 45 42 40 39 38 38 39 39 40 41 42 44
58 58 59 60 61 61 62 62 62 61 60 59 58 58 58 58 59 59 60 60 60 61 60 58 54 51 48 45 43 41 39 36 33 31 30 31 32 32 33 34 35 35 36
58 59 60 60 60 60 60 60 59 58 57 56 56 56 57 57 58 58 58 57 57 56 53 49 45 41 39 37 36 33 31 30 29 27 26 26 27 28 29 30 31 32 32
58 58 58 58 58 58 57 57 56 55 55 55 55 56 56 56 56 55 55 54 51 48 43 39 35 33 31 30 29 28 27 27 27 26 24 24 24 24 25 26 27 27 28
56 56 55 55 55 54 54 53 53 53 54 54 54 54 54 54 53 52 50 47 43 38 33 29 28 28 27 27 27 27 26 25 25 25 24 23 22 21 22 22 22 23 24
53 52 52 52 52 52 52 52 52 52 51 51 51 51 51 50 47 44 40 37 34 29 26 25 25 25 26 27 27 27 26 25 24 24 22 21 21 20 19 19 19 18 19
49 49 49 49 49 49 49 49 48 49 49 48 47 46 44 41 37 34 31 28 25 24 23 23 24 26 27 27 27 26 25 24 23 23 21 20 20 19 17 16 15 16 16
46 46 46 46 46 46 46 47 46 46 45 43 42 39 35 31 28 24 21 20 19 20 21 23 25 26 26 26 25 23 21 20 20 19 18 17 16 16 15 13 12 12 12
43 43 43 44 44 44 44 43 41 40 38 37 34 31 26 22 19 16 15 15 16 18 21 23 24 25 24 23 21 19 18 17 16 15 15 14 13 12 12 11 10 9 9

GEFSMA_500_meanwind_042.txt.gz
Wind_Speed
20 21 22 23 22 22 21 21 21 21 20 20 20 20 20 20 20 22 23 24 25 27 28 29 30 31 32 33 34 35 36 37 37 38 38 38 39 39 39 39 39 38 38
24 25 27 27 27 27 26 26 25 26 25 24 23 22 23 23 24 25 26 27 28 30 32 33 34 35 36 38 39 40 40 41 41 42 43 43 43 44 43 43 42 42 42
28 30 32 33 33 32 32 32 31 30 29 28 27 27 26 26 26 27 29 30 31 32 34 35 37 38 40 41 43 44 44 45 46 46 46 47 47 47 47 46 45 45 45
34 36 37 39 39 38 37 37 35 34 32 31 30 30 29 29 29 30 31 32 33 35 36 37 39 41 42 44 46 47 47 48 48 49 50 50 50 50 50 50 49 48 47
39 40 41 41 41 42 41 39 37 34 33 33 32 31 31 31 30 31 33 34 35 37 38 39 41 43 44 46 48 49 50 50 51 52 53 53 54 53 53 53 52 52 51
41 40 39 40 41 42 41 39 37 34 32 33 32 31 29 29 31 32 34 35 37 39 41 42 44 45 47 49 50 52 53 54 55 56 57 57 57 57 57 57 56 55 55
39 37 34 33 33 34 35 35 33 33 31 29 29 29 28 28 31 33 35 37 39 41 43 44 46 47 49 51 53 55 56 58 59 60 61 62 62 62 62 61 61 60 59
34 29 25 27 26 28 29 29 29 30 28 26 27 27 28 30 32 34 38 40 42 44 46 47 48 50 52 54 56 57 59 61 62 63 64 65 66 66 66 66 65 64 63
34 29 27 25 24 24 24 25 27 26 27 28 28 30 32 34 36 38 41 44 45 48 50 51 53 55 57 58 60 62 62 64 66 67 68 69 69 70 70 70 69 68 67
34 30 28 27 25 24 24 25 25 27 29 31 33 34 37 40 43 46 46 48 50 52 55 56 58 60 62 63 65 66 66 67 69 70 71 71 72 72 72 72 71 71 70
34 31 29 28 28 28 28 29 30 31 33 36 38 40 42 45 48 50 53 54 56 58 60 61 63 65 66 67 68 69 68 69 70 71 72 72 73 73 73 73 73 72 72
34 32 31 31 30 31 33 34 35 37 38 41 43 45 48 50 52 54 56 58 60 62 64 65 67 68 68 69 69 69 69 69 70 71 72 73 73 73 74 74 74 73 73
36 34 34 35 35 36 37 38 40 42 43 46 48 51 53 55 56 58 60 61 63 64 66 67 68 69 69 70 70 70 70 70 71 71 71 72 72 72 72 72 72 72 72
39 38 38 39 39 40 41 43 44 46 48 50 52 54 56 58 60 61 62 64 64 65 67 68 68 69 69 69 70 70 69 68 68 68 69 69 69 69 68 68 67 67 67
42 42 44 44 44 45 46 47 48 50 52 53 55 57 59 60 62 63 64 65 66 66 66 67 67 67 67 68 68 67 67 67 66 65 65 65 64 63 62 62 62 62 63
46 47 48 48 47 48 49 50 51 52 54 56 58 59 60 61 62 63 64 64 64 64 63 63 64 64 64 65 65 65 64 63 62 60 58 57 57 56 56 55 56 55 56
50 50 51 50 51 51 51 52 53 55 56 57 58 59 60 60 61 62 62 61 61 61 60 60 61 62 62 62 62 61 59 57 55 53 51 50 49 48 48 48 48 48 48
52 52 52 53 53 53 53 54 55 55 56 57 57 58 58 59 58 58 58 58 58 59 58 58 58 59 59 58 56 55 53 50 47 44 42 42 41 41 41 41 41 41 41
53 54 54 54 54 54 54 55 55 55 56 56 56 56 56 55 55 55 55 55 55 55 56 55 55 54 53 51 50 47 44 42 40 38 37 37 37 36 36 36 35 35 35
54 54 54 54 55 55 55 55 55 55 54 54 53 52 52 52 52 52 52 52 52 53 52 50 48 46 44 43 41 39 37 36 36 36 35 34 34 33 32 32 31 31 31
55 55 55 55 55 54 54 54 53 52 50 50 49 49 49 49 50 50 50 50 49 48 45 43 40 38 36 36 35 34 33 33 34 34 33 32 31 31 30 30 30 29 29
54 54 54 54 53 53 52 51 50 49 48 47 48 48 48 48 48 47 47 46 44 40 37 35 33 32 31 31 32 32 33 32 31 30 30 30 29 28 28 28 27 27 26
52 52 52 51 50 49 49 48 47 47 47 47 47 47 47 46 44 43 41 39 36 32 30 28 27 28 29 30 31 30 30 29 28 27 27 26 27 26 25 24 24 24 24
49 49 49 48 47 47 46 46 46 46 46 45 45 44 42 41 39 36 34 31 28 27 25 26 27 28 29 28 27 26 25 24 24 24 23 23 23 23 23 22 21 21 21
47 46 46 45 45 45 45 45 45 45 44 43 41 38 36 33 31 28 25 23 22 22 23 25 26 26 26 26 25 23 22 21 21 21 20 20 19 19 18 18 18 18 18
44 43 43 43 44 43 43 43 42 41 39 37 35 31 28 25 22 20 17 16 17 19 22 23 24 24 24 22 21 20 19 18 18 18 18 16 15 14 13 13 14 14 14

GEFSMA_500_meanwind_048.txt.gz
Wind_Speed
23 24 26 27 27 27 27 28 29 29 29 29 28 28 27 28 29 26 24 25 25 25 25 25 25 26 26 27 28 29 30 31 32 33 33 34 35 36 36 36 36 36 36
27 28 29 30 31 31 32 33 33 33 33 32 32 31 30 31 31 30 28 29 29 29 28 28 29 29 30 30 31 32 33 34 35 36 37 38 39 40 40 40 41 41 40
29 31 31 32 33 32 34 35 35 35 35 35 35 34 33 34 34 33 32 32 32 32 31 32 32 32 33 34 35 35 36 38 39 40 41 42 43 43 43 44 44 44 44
30 31 31 32 33 32 32 33 33 33 34 35 35 35 33 34 34 34 35 35 35 34 34 35 36 36 36 36 37 38 39 40 42 43 44 45 46 47 47 47 47 48 48
31 32 33 33 33 33 31 30 30 29 29 31 33 34 34 34 33 34 35 37 37 37 36 36 36 37 37 38 40 41 41 43 44 46 47 49 50 50 51 51 51 52 52
33 34 34 34 34 32 30 29 29 28 26 26 28 30 31 32 32 34 34 36 38 37 37 36 35 36 38 40 42 43 45 46 48 49 51 53 54 55 55 56 56 56 56
35 35 35 35 34 31 30 29 28 27 25 24 25 25 26 28 30 32 33 34 34 34 35 36 37 37 39 41 43 46 48 50 52 54 56 57 59 60 60 61 61 61 61
39 37 37 37 34 31 29 28 28 27 26 26 25 25 25 26 27 29 32 33 34 35 36 38 40 42 45 47 49 51 53 55 57 59 61 63 64 65 66 66 67 67 67
41 41 40 38 35 33 31 29 29 29 28 28 28 28 29 29 30 32 34 35 37 39 41 43 46 48 50 52 55 57 59 60 62 64 66 68 69 70 71 72 72 72 72
43 42 42 39 36 34 32 31 31 31 31 31 32 33 34 35 35 35 37 39 41 44 46 48 51 54 56 59 61 64 65 66 67 69 71 73 74 75 75 76 76 75 75
44 43 42 41 38 36 35 34 34 34 34 35 36 37 39 40 41 42 43 45 48 51 53 55 57 59 61 64 66 68 69 70 71 73 74 75 76 77 77 77 77 76 76
45 45 44 41 40 39 38 37 37 37 38 39 40 41 43 44 46 48 49 51 53 56 59 61 63 65 67 69 71 72 73 74 75 76 76 77 76 76 76 76 75 75 75
46 45 44 43 42 41 41 41 41 41 42 43 44 45 47 48 50 53 54 56 58 59 62 65 67 70 72 74 75 75 76 75 75 76 75 75 74 74 73 73 72 72 71
46 46 45 45 44 44 44 44 44 44 45 46 47 49 50 52 54 56 58 60 61 63 65 68 70 72 73 75 76 76 76 76 75 74 73 72 71 71 70 70 70 69 68
48 49 49 48 48 47 47 47 48 48 49 50 51 52 53 55 57 59 61 63 64 65 66 68 71 72 73 73 74 74 73 72 71 71 70 69 68 68 67 67 67 67 66
51 51 51 51 51 51 50 51 51 51 52 53 54 55 56 58 59 61 62 64 65 66 66 67 69 70 70 70 69 69 69 68 68 67 66 65 64 64 63 62 62 61 60
54 54 54 54 54 53 54 54 54 55 55 55 56 57 58 59 60 61 62 63 64 65 65 65 66 67 66 66 65 65 65 63 62 60 59 57 56 55 54 54 53 52 52
56 56 56 56 56 56 56 56 57 57 57 57 57 58 58 58 59 59 60 61 61 62 62 61 61 62 62 62 61 61 59 58 56 54 53 51 49 48 47 46 45 45 45
57 58 57 57 57 57 57 57 57 57 57 57 57 57 57 57 57 57 58 58 59 59 59 58 58 57 57 57 56 54 53 51 50 48 46 45 43 42 41 41 41 41 41
56 57 57 57 57 57 58 58 57 57 56 56 55 55 55 55 55 55 55 55 56 55 55 55 53 52 51 50 48 47 45 44 43 42 41 40 39 39 38 38 39 39 38
55 55 56 57 57 57 57 57 56 55 54 54 54 54 53 53 53 53 53 52 53 52 51 49 47 45 44 43 42 40 39 38 38 38 37 37 36 36 36 36 36 35 35
54 55 55 55 55 55 55 54 54 53 53 52 51 51 51 51 50 50 49 49 48 47 44 42 40 38 37 36 35 35 35 35 33 34 33 32 32 32 32 32 31 31 30
53 53 53 53 53 52 52 52 51 51 50 49 49 49 48 48 46 46 45 44 42 40 37 35 33 32 31 31 31 31 31 31 30 29 28 28 28 28 28 28 27 27 26
50 50 51 50 50 49 49 49 48 47 47 46 46 45 44 43 42 40 38 36 34 32 29 28 27 27 27 28 28 28 28 27 27 27 26 25 25 25 25 24 23 22 22
49 48 48 48 47 47 46 46 45 44 43 43 42 41 39 37 35 33 31 28 26 24 23 23 23 24 25 25 26 26 26 26 25 26 25 24 23 22 22 21 19 19 19
47 46 46 45 44 43 43 42 41 40 40 39 37 35 32 29 27 25 22 20 19 19 19 20 22 23 23 23 24 25 25 25 24 23 23 22 20 19 19 19 18 16 15

GEFSMA_500_meanwind_054.txt.gz
Wind_Speed
5 6 8 10 12 13 14 15 15 16 18 19 20 21 22 21 21 21 23 24 24 25 25 25 25 25 26 26 27 27 27 28 29 30 31 31 32 33 33 34 34 34 35
6 8 10 11 12 13 15 15 16 17 17 18 19 20 21 21 20 21 23 25 26 27 27 27 28 29 30 30 30 31 31 32 32 33 34 35 35 36 36 37 38 38 38
10 11 12 13 13 14 15 15 15 16 17 18 18 19 19 19 20 20 22 25 27 28 29 31 31 31 33 34 34 34 35 36 36 37 38 38 39 39 39 40 40 41 41
14 14 15 16 16 17 17 17 16 16 17 17 18 19 20 20 19 20 21 24 26 29 30 31 33 34 34 35 36 38 39 39 40 41 41 42 42 42 43 44 44 45 45
18 18 19 19 20 20 20 20 19 19 19 19 19 20 20 21 22 22 23 24 26 28 30 32 34 35 37 38 39 40 41 43 43 44 44 45 45 46 47 48 49 49 49
22 22 23 24 25 25 24 23 22 21 21 21 21 21 21 22 23 24 25 26 27 28 29 31 33 35 37 39 40 42 43 44 45 46 47 48 49 50 51 52 53 53 53
27 26 27 28 28 29 28 26 25 24 23 23 23 24 24 25 25 26 26 28 30 31 32 33 34 36 38 39 42 43 45 46 48 49 51 52 54 55 56 57 58 59 59
31 31 31 31 31 31 30 28 27 27 27 26 26 27 27 28 28 29 30 31 33 34 36 37 39 40 41 43 45 47 48 50 52 54 56 58 59 61 62 63 64 65 66
35 35 34 34 33 33 31 30 30 29 29 29 30 31 31 31 32 33 35 36 37 39 40 42 43 45 46 47 49 50 52 54 56 58 60 62 64 66 68 69 70 72 72
38 37 37 36 35 34 34 33 32 32 32 32 33 35 36 36 37 38 39 41 43 44 46 47 49 50 52 53 55 56 58 60 62 64 67 69 70 72 74 75 76 77 77
38 39 38 37 37 37 35 34 34 35 35 36 37 39 40 41 42 43 44 46 48 50 51 53 54 56 58 59 61 62 64 66 68 70 72 74 75 76 77 78 78 78 78
40 40 40 39 38 37 36 36 38 39 39 40 41 42 44 45 46 48 49 51 53 55 56 58 60 61 62 64 66 68 70 71 73 75 76 77 78 78 78 78 78 78 77
41 42 41 40 39 39 39 40 41 42 43 44 46 47 48 49 51 52 54 55 56 58 60 62 64 65 66 68 70 72 74 75 76 77 78 78 79 78 78 77 76 75 74
42 42 42 41 42 43 43 44 45 46 47 48 50 51 52 54 55 56 57 58 59 60 62 64 66 68 70 71 73 74 75 76 77 77 77 77 76 75 74 73 72 71 71
44 44 45 45 45 46 48 49 50 50 51 53 54 55 56 57 58 59 59 60 61 61 63 65 67 69 70 71 72 73 73 74 74 74 73 73 72 71 70 69 68 68 67
47 47 48 48 50 51 53 54 55 56 56 57 57 58 58 59 60 60 61 62 62 63 64 65 67 68 69 70 70 70 70 70 69 69 68 68 68 67 67 66 65 63 62
51 52 53 54 55 57 58 59 59 59 60 60 60 60 60 60 60 61 62 63 63 64 64 65 66 67 67 67 67 66 66 65 64 64 63 63 62 60 59 58 57 57 56
56 57 58 58 59 61 62 62 62 62 62 62 61 61 61 61 61 62 62 62 63 64 64 63 64 64 64 64 63 62 61 60 60 59 57 56 56 55 54 53 52 51 51
59 61 62 63 63 63 64 64 63 63 62 62 61 60 60 60 61 61 61 62 62 62 63 61 60 60 59 58 57 57 56 56 55 53 52 51 50 48 47 46 45 45 45
61 62 63 63 64 63 63 63 62 61 61 60 59 59 59 59 59 59 60 60 60 59 58 57 56 55 54 54 53 51 50 48 47 46 45 44 42 42 41 41 41 40 40
60 61 61 62 62 61 60 59 57 57 57 57 57 57 57 57 57 57 57 57 56 54 53 53 52 50 48 47 46 44 41 39 38 38 37 38 38 37 37 36 36 35 35
57 57 56 56 55 55 55 55 55 55 55 55 55 55 55 55 55 54 53 53 51 49 47 46 44 42 40 38 36 34 33 32 32 33 33 33 33 32 32 31 31 31 31
50 51 52 52 52 52 53 53 53 53 53 53 53 53 52 51 49 48 48 46 44 42 41 39 36 33 31 29 28 28 29 30 30 30 29 28 29 29 29 29 28 28 28
48 49 49 50 50 51 51 51 51 51 50 49 48 46 45 44 43 42 40 39 38 36 33 30 27 25 25 24 25 25 26 26 27 28 27 26 27 27 27 26 25 25 25
46 47 47 47 47 47 47 46 45 44 43 42 41 40 39 39 37 34 33 32 30 27 25 23 22 21 21 21 22 23 23 23 24 25 26 25 25 25 25 24 23 22 22
43 44 44 43 43 42 42 41 39 39 38 37 35 34 33 31 28 26 25 23 21 20 19 19 19 18 19 19 20 21 21 22 22 22 23 23 23 22 22 23 22 20 19

GEFSMA_500_meanwind_060.txt.gz
Wind_Speed
10 10 11 11 11 11 12 12 13 13 14 15 15 14 14 14 14 15 15 17 19 20 21 22 23 24 25 26 26 27 28 28 29 30 30 30 31 31 31 32 32 33 33
12 13 14 14 14 14 14 14 15 15 16 16 17 16 16 16 16 15 15 16 17 19 21 22 23 25 26 28 28 29 30 31 32 33 33 34 35 35 35 36 36 36 37
15 16 17 17 17 17 17 17 17 17 18 18 18 19 19 18 18 18 17 18 19 20 20 22 23 25 26 28 30 31 32 34 35 36 36 37 38 39 39 40 40 40 41
18 19 19 20 21 21 21 21 21 20 20 21 21 21 21 21 21 21 20 21 21 21 22 23 24 25 26 28 29 31 33 34 35 37 38 39 40 41 42 43 44 44 45
22 23 23 24 25 25 25 25 25 24 24 23 23 24 24 24 24 24 24 24 25 25 26 26 27 28 29 30 31 32 33 34 36 38 39 41 42 43 44 45 47 47 48
25 26 28 29 29 29 30 30 28 26 25 25 26 26 27 26 26 27 27 27 27 28 28 30 31 32 33 33 35 36 37 38 39 40 42 43 45 46 47 48 50 51 51
29 30 31 32 32 32 32 32 30 28 27 27 28 29 29 29 29 30 30 30 31 32 33 34 35 36 37 38 39 41 41 43 44 45 46 47 48 49 51 52 53 54 54
31 32 32 32 33 34 34 32 31 31 31 31 31 31 31 31 32 33 33 35 35 36 37 39 40 41 42 43 45 46 47 48 49 50 51 52 53 54 55 56 57 58 58
35 35 35 35 34 34 35 34 33 32 33 32 32 33 33 33 34 35 36 38 39 41 42 43 44 46 47 48 50 51 52 54 55 56 57 58 59 60 61 61 62 63 63
35 35 36 34 33 34 35 35 35 34 34 35 36 36 37 36 36 37 39 41 43 44 45 47 48 50 51 53 54 56 57 58 60 61 62 63 64 65 66 67 68 68 69
35 35 36 35 35 35 35 36 36 36 36 37 37 37 38 39 40 41 42 44 46 47 49 50 52 54 55 57 58 59 60 62 63 65 66 67 68 68 70 71 72 73 73
37 38 37 37 37 37 38 38 38 39 39 40 40 40 41 42 42 44 46 48 49 51 52 54 55 57 59 60 61 62 64 65 67 68 69 70 71 71 72 73 74 75 75
40 39 39 40 40 41 42 41 40 42 42 41 42 43 44 45 46 48 49 51 52 54 56 57 59 60 61 62 63 65 66 67 69 70 71 72 73 73 74 74 74 74 74
43 42 43 42 42 43 44 43 44 43 43 44 45 46 48 49 50 52 54 55 57 58 59 61 61 62 63 64 65 66 67 68 69 70 70 70 71 72 72 72 72 71 71
44 44 45 45 44 46 46 46 48 47 48 49 50 51 53 54 56 57 58 59 60 60 61 62 63 64 65 65 65 66 67 68 67 67 67 68 68 68 69 68 68 67 67
45 46 46 47 47 49 49 50 52 51 52 53 55 57 58 59 60 61 61 62 62 62 63 63 64 64 65 65 65 65 65 64 64 65 65 65 65 64 63 63 62 62 62
47 48 49 50 51 52 54 55 56 57 58 59 60 61 61 62 62 62 62 63 62 62 62 62 63 63 63 63 63 63 62 62 62 61 60 60 59 58 57 56 57 56 56
49 50 51 52 53 55 57 58 59 60 61 61 62 62 62 62 62 62 62 61 61 61 61 60 60 60 60 61 60 60 59 58 57 56 56 55 53 52 52 51 51 51 51
51 52 53 55 56 58 59 60 60 61 62 61 61 61 62 61 61 61 60 59 59 59 58 57 57 57 57 57 56 56 55 53 53 52 51 49 47 46 45 45 45 45 45
51 53 55 56 57 59 59 61 61 62 62 61 61 60 59 58 58 58 57 57 57 56 55 54 53 53 53 52 51 49 48 48 47 46 44 41 40 39 39 39 39 39 39
51 53 55 56 58 59 60 60 60 59 59 59 58 57 55 55 55 55 55 54 53 51 50 49 48 47 46 46 44 43 42 40 39 37 36 36 35 34 34 35 35 35 35
50 52 53 55 56 57 57 58 58 57 57 56 55 54 53 52 51 50 49 48 46 44 43 43 41 40 39 38 37 36 34 33 32 31 31 32 32 32 32 33 33 33 33
48 50 51 53 54 54 55 55 55 54 54 53 52 50 48 47 45 44 43 41 40 39 37 35 34 33 32 32 31 30 29 28 28 27 27 29 30 31 31 31 31 31 31
47 49 50 51 52 52 52 52 51 50 49 48 46 44 42 40 39 37 36 35 34 33 31 30 29 28 27 26 25 25 24 25 26 27 26 27 28 29 30 30 29 29 29
46 47 48 49 49 49 48 48 47 45 44 41 39 37 36 34 32 31 30 29 28 26 25 24 23 21 20 21 21 22 23 24 25 27 27 27 28 28 29 29 28 28 27
44 45 45 45 45 45 44 42 40 38 36 33 31 30 27 26 25 24 23 22 20 19 19 18 17 17 18 19 20 21 22 23 24 25 26 26 27 26 27 28 27 26 24